This is the latest recevied weather packets stored in our database for station/object DL1DH-17. If no packets are shown the sender has not sent any weather packets the latest 10 day(s).
| Time | Temp. | Humidity | Pressure | Rain* | Wind** | Luminosity | Snow |
|---|---|---|---|---|---|---|---|
| 1777910568 | 21.11° C | 43% | 973.1 hPa | - | - | - | - |
| 1777909728 | 22.22° C | 41% | 973.2 hPa | - | - | - | - |
| 1777908888 | 22.78° C | 39% | 973.2 hPa | - | - | - | - |
| 1777908048 | 22.78° C | 39% | 973.3 hPa | - | - | - | - |
| 1777907208 | 22.78° C | 39% | 973.4 hPa | - | - | - | - |
| 1777906368 | 22.78° C | 39% | 973.5 hPa | - | - | - | - |
| 1777905527 | 22.78° C | 39% | 973.6 hPa | - | - | - | - |
| 1777904687 | 22.22° C | 39% | 973.6 hPa | - | - | - | - |
| 1777903847 | 22.22° C | 38% | 973.8 hPa | - | - | - | - |
| 1777903007 | 22.78° C | 38% | 973.8 hPa | - | - | - | - |
| 1777902167 | 22.78° C | 38% | 973.8 hPa | - | - | - | - |
| 1777901327 | 23.33° C | 37% | 973.9 hPa | - | - | - | - |
| 1777900487 | 22.78° C | 36% | 973.9 hPa | - | - | - | - |
| 1777899647 | 23.33° C | 37% | 973.9 hPa | - | - | - | - |
| 1777898807 | 23.33° C | 37% | 973.9 hPa | - | - | - | - |
| 1777897967 | 22.78° C | 38% | 974.1 hPa | - | - | - | - |
| 1777897126 | 21.67° C | 39% | 974 hPa | - | - | - | - |
| 1777896286 | 21.11° C | 39% | 974.2 hPa | - | - | - | - |
| 1777895446 | 21.67° C | 39% | 974.3 hPa | - | - | - | - |
| 1777894606 | 22.22° C | 39% | 974.3 hPa | - | - | - | - |
| 1777893766 | 22.22° C | 40% | 974.4 hPa | - | - | - | - |
| 1777892926 | 21.11° C | 42% | 974.5 hPa | - | - | - | - |
| 1777892086 | 20.56° C | 41% | 974.7 hPa | - | - | - | - |
| 1777891246 | 20.56° C | 42% | 974.9 hPa | - | - | - | - |
| 1777890406 | 20.56° C | 42% | 974.9 hPa | - | - | - | - |
* Rain since midnight (hover to see other rain measurements)
** Current wind speed in m/s (hover to see current wind gust speed)